TimeEST,TemperatureF,Dew PointF,Humidity,Sea Level PressureIn,VisibilityMPH,Wind Direction,Wind SpeedMPH,Gust SpeedMPH,PrecipitationIn,Events,Conditions,WindDirDegrees,DateUTC
12:02 AM,33.8,33.8,100,29.99,3.0,Calm,Calm,-,N/A,,Overcast,0,2013-01-29 05:02:00
12:42 AM,33.8,33.8,100,29.98,5.0,Calm,Calm,-,N/A,,Overcast,0,2013-01-29 05:42:00
12:53 AM,34.0,33.1,96,29.98,4.0,Calm,Calm,-,N/A,,Overcast,0,2013-01-29 05:53:00
1:24 AM,33.8,33.8,100,29.99,1.8,Calm,Calm,-,N/A,,Overcast,0,2013-01-29 06:24:00
1:39 AM,33.8,33.8,100,30.00,2.0,Calm,Calm,-,N/A,,Overcast,0,2013-01-29 06:39:00
1:53 AM,34.0,34.0,100,30.01,2.0,Calm,Calm,-,N/A,,Overcast,0,2013-01-29 06:53:00
2:06 AM,33.8,33.8,100,30.00,4.0,NW,3.5,-,N/A,,Overcast,310,2013-01-29 07:06:00
2:39 AM,33.8,33.8,100,30.00,7.0,NW,4.6,-,N/A,,Overcast,310,2013-01-29 07:39:00
2:53 AM,35.1,34.0,96,30.01,8.0,NW,4.6,-,N/A,,Overcast,320,2013-01-29 07:53:00
3:07 AM,33.8,33.8,100,30.00,8.0,NNW,4.6,-,N/A,,Overcast,330,2013-01-29 08:07:00
3:53 AM,33.1,33.1,100,30.01,2.5,NNW,6.9,-,N/A,,Overcast,340,2013-01-29 08:53:00
4:12 AM,33.8,33.8,100,30.01,1.5,NNW,5.8,-,N/A,,Overcast,330,2013-01-29 09:12:00
4:51 AM,33.8,33.8,100,30.03,2.0,NNW,6.9,-,N/A,,Overcast,340,2013-01-29 09:51:00
4:53 AM,33.1,33.1,100,30.03,2.0,NNW,6.9,-,N/A,,Overcast,340,2013-01-29 09:53:00
5:13 AM,33.8,33.8,100,30.04,4.0,NNW,6.9,-,N/A,,Overcast,340,2013-01-29 10:13:00
5:53 AM,33.1,33.1,100,30.05,3.0,North,5.8,-,N/A,,Overcast,350,2013-01-29 10:53:00
6:53 AM,33.1,32.0,96,30.07,10.0,NNW,4.6,-,N/A,,Overcast,340,2013-01-29 11:53:00
7:53 AM,33.1,32.0,96,30.11,7.0,North,6.9,-,N/A,,Overcast,350,2013-01-29 12:53:00
8:53 AM,33.1,33.1,100,30.13,7.0,NNW,5.8,-,N/A,,Overcast,340,2013-01-29 13:53:00
9:34 AM,33.8,33.8,100,30.13,8.0,North,5.8,-,N/A,,Overcast,350,2013-01-29 14:34:00
9:53 AM,35.1,34.0,96,30.13,9.0,Calm,Calm,-,N/A,,Overcast,0,2013-01-29 14:53:00
10:19 AM,37.4,33.8,87,30.15,10.0,NNE,5.8,-,N/A,,Overcast,20,2013-01-29 15:19:00
10:53 AM,37.0,34.0,89,30.15,10.0,NE,4.6,-,N/A,,Overcast,40,2013-01-29 15:53:00
11:38 AM,37.4,35.6,93,30.15,10.0,NE,4.6,-,N/A,,Overcast,50,2013-01-29 16:38:00
11:53 AM,37.9,35.1,89,30.15,10.0,NNE,4.6,-,N/A,,Overcast,20,2013-01-29 16:53:00
12:19 PM,39.2,35.6,87,30.13,10.0,North,6.9,-,N/A,,Overcast,10,2013-01-29 17:19:00
12:53 PM,39.9,36.0,86,30.13,10.0,NNE,5.8,-,N/A,,Overcast,30,2013-01-29 17:53:00
1:00 PM,39.2,35.6,87,30.13,10.0,NNE,4.6,-,N/A,,Overcast,20,2013-01-29 18:00:00
1:53 PM,39.0,35.1,86,30.14,10.0,NNE,5.8,-,N/A,,Overcast,20,2013-01-29 18:53:00
2:22 PM,37.4,35.6,93,30.14,10.0,NNE,5.8,-,N/A,,Overcast,20,2013-01-29 19:22:00
2:45 PM,37.4,35.6,93,30.16,10.0,NNE,5.8,-,N/A,,Overcast,30,2013-01-29 19:45:00
2:53 PM,37.9,35.1,89,30.16,10.0,NE,4.6,-,N/A,,Overcast,40,2013-01-29 19:53:00
3:41 PM,37.4,35.6,93,30.16,10.0,NE,5.8,-,N/A,,Overcast,50,2013-01-29 20:41:00
3:53 PM,37.0,35.1,93,30.17,10.0,NE,4.6,-,N/A,,Overcast,40,2013-01-29 20:53:00
4:53 PM,36.0,35.1,97,30.18,10.0,Calm,Calm,-,N/A,,Overcast,0,2013-01-29 21:53:00
5:48 PM,35.6,35.6,100,30.18,10.0,Calm,Calm,-,N/A,,Overcast,0,2013-01-29 22:48:00
5:53 PM,36.0,35.1,97,30.18,10.0,Calm,Calm,-,N/A,,Overcast,0,2013-01-29 22:53:00
6:29 PM,35.6,35.6,100,30.19,8.0,Calm,Calm,-,N/A,,Overcast,0,2013-01-29 23:29:00
6:45 PM,35.6,33.8,93,30.18,1.5,Calm,Calm,-,N/A,,Overcast,0,2013-01-29 23:45:00
6:53 PM,35.1,34.0,96,30.18,0.5,East,3.5,-,N/A,Fog,Fog,100,2013-01-29 23:53:00
7:02 PM,35.6,35.6,100,30.18,0.2,Calm,Calm,-,N/A,Fog,Fog,0,2013-01-30 00:02:00
7:12 PM,35.6,35.6,100,30.17,0.5,SE,3.5,-,N/A,Fog,Fog,130,2013-01-30 00:12:00
7:53 PM,35.1,35.1,100,30.19,0.5,SE,3.5,-,N/A,Fog,Fog,140,2013-01-30 00:53:00
8:15 PM,35.6,35.6,100,30.19,1.2,SE,3.5,-,N/A,,Overcast,140,2013-01-30 01:15:00
8:28 PM,35.6,35.6,100,30.18,2.0,SE,4.6,-,N/A,,Overcast,130,2013-01-30 01:28:00
8:43 PM,35.6,35.6,100,30.18,4.0,SE,5.8,-,N/A,,Overcast,130,2013-01-30 01:43:00
8:53 PM,36.0,36.0,100,30.18,5.0,SSE,5.8,-,N/A,,Overcast,150,2013-01-30 01:53:00
9:27 PM,37.4,37.4,100,30.17,10.0,SSE,6.9,-,N/A,,Overcast,160,2013-01-30 02:27:00
9:53 PM,37.9,37.0,97,30.17,10.0,SE,9.2,-,N/A,,Overcast,140,2013-01-30 02:53:00
10:53 PM,37.9,37.0,97,30.15,10.0,SSE,5.8,-,0.00,,Overcast,150,2013-01-30 03:53:00
11:53 PM,39.0,37.0,93,30.15,10.0,SSE,6.9,-,0.00,Rain,Light Rain,150,2013-01-30 04:53:00